Date,TemperatureHighF,TemperatureAvgF,TemperatureLowF,DewpointHighF,DewpointAvgF,DewpointLowF,HumidityHigh,HumidityAvg,HumidityLow,PressureMaxIn,PressureMinIn,WindSpeedMaxMPH,WindSpeedAvgMPH,GustSpeedMaxMPH,PrecipitationSumIn
2012-1-1,42.3,35.4,28.6,31.0,18.0,5.7,70,51,23,30.60,29.91,35,9,44,0.00
2012-1-2,36.2,25.8,17.0,13.8,10.4,7.2,70,53,32,30.72,30.58,24,4,31,0.00
2012-1-3,50.0,32.7,18.1,29.7,18.8,8.4,73,57,42,30.58,29.96,26,3,32,0.00
2012-1-4,55.7,44.1,32.8,30.6,28.7,25.1,73,55,37,30.26,30.00,24,2,24,0.00
2012-1-5,70.6,47.8,30.7,36.0,29.9,24.5,79,53,26,30.01,29.56,11,1,14,0.00
2012-1-6,51.4,44.4,35.6,33.8,28.5,21.3,76,54,40,29.98,29.52,22,2,23,0.00
2012-1-7,46.6,34.3,24.1,29.2,23.3,17.6,81,65,45,30.27,29.98,2,0,4,0.00
2012-1-8,50.5,34.8,26.1,30.3,25.3,21.2,85,70,39,30.37,30.26,5,0,7,0.00
2012-1-9,52.7,36.9,26.0,30.4,25.8,20.5,87,66,40,30.27,30.02,14,1,14,0.00
2012-1-10,63.7,41.5,26.5,37.5,29.2,21.5,85,64,37,30.02,29.60,11,0,13,0.00
2012-1-11,40.4,31.3,20.4,34.0,24.0,10.2,89,74,61,30.02,29.49,35,7,45,0.00
2012-1-12,20.4,14.7,10.6,10.8,6.1,1.5,77,68,62,30.19,30.00,32,8,38,0.00
2012-1-13,29.7,19.3,8.2,13.2,5.2,-0.6,74,56,30,30.28,29.96,16,1,18,0.00
2012-1-14,46.5,32.9,24.9,29.0,19.4,12.7,70,58,36,30.22,29.92,21,1,24,0.00
2012-1-15,58.2,40.6,28.7,29.2,23.6,16.3,63,52,32,30.12,29.64,25,3,27,0.00
2012-1-16,44.4,36.1,29.3,28.3,24.2,15.1,74,62,50,29.82,29.60,22,4,23,0.00
2012-1-17,28.2,18.4,10.8,17.5,13.0,6.0,92,79,53,30.48,29.89,21,7,28,0.00
2012-1-18,38.0,22.8,9.0,25.1,14.2,4.4,83,70,53,30.44,29.87,22,3,27,0.00
2012-1-19,23.8,13.3,7.2,8.1,0.4,-3.7,70,56,39,30.30,30.04,19,3,24,0.00
2012-1-20,27.9,16.4,10.0,10.8,4.7,-2.5,74,60,44,30.40,30.06,21,4,22,0.00
2012-1-21,24.9,18.9,12.4,20.1,12.4,5.4,82,75,71,30.39,29.73,29,3,31,0.00
2012-1-22,46.7,35.2,24.9,39.9,30.2,20.2,91,82,67,29.74,29.34,23,4,28,0.00
2012-1-23,32.5,28.8,22.0,27.4,22.7,17.3,88,78,70,30.10,29.51,30,6,33,0.00
2012-1-24,38.8,27.3,14.2,30.2,22.3,11.1,89,81,67,30.34,30.10,11,1,13,0.00
2012-1-25,44.9,34.9,26.8,33.7,29.3,23.9,91,80,63,30.28,29.90,11,1,14,0.00
2012-1-26,50.6,36.5,23.9,33.6,27.7,21.4,92,72,49,29.92,29.82,28,3,30,0.00
2012-1-27,43.9,33.8,27.0,32.8,24.9,18.9,83,70,54,30.21,29.82,24,1,28,0.00
2012-1-28,47.7,34.1,23.0,20.0,15.6,10.9,78,50,25,30.27,30.14,29,4,36,0.00
2012-1-29,42.9,34.8,23.6,21.0,17.5,11.3,70,49,35,30.25,29.90,14,1,19,0.00
2012-1-30,70.2,51.8,38.8,37.4,26.9,20.4,63,40,21,29.90,29.58,19,3,22,0.00
2012-1-31,49.4,40.0,31.7,37.4,33.9,28.8,90,79,63,29.67,29.58,8,0,14,0.00
2012-2-1,41.2,36.0,32.7,26.6,24.7,23.3,69,63,53,30.11,30.06,0,0,0,0.00
2012-2-2,59.5,41.2,26.0,34.2,27.8,20.6,83,61,37,30.21,30.11,10,1,14,0.00
2012-2-3,48.0,43.7,34.2,39.6,35.0,30.9,92,73,54,30.19,30.05,29,6,32,0.12
2012-2-4,34.2,33.3,32.1,32.4,31.7,30.6,94,94,93,30.24,30.12,19,2,24,0.04
2012-2-5,31.0,26.2,21.2,29.0,24.0,19.0,93,91,90,30.50,30.40,1,0,2,0.01
2012-2-6,37.1,24.8,12.7,30.5,21.0,9.8,91,85,74,30.41,30.24,1,0,6,0.16
2012-2-7,33.3,30.4,27.2,30.3,27.1,23.4,92,87,84,30.58,30.28,16,4,23,0.00
2012-2-8,29.6,26.1,22.7,23.6,20.1,16.7,85,78,69,30.61,30.44,14,0,16,0.01
2012-2-9,36.5,30.5,25.5,30.5,26.2,20.9,90,84,74,30.44,30.07,18,2,24,0.01
2012-2-10,30.6,18.7,6.7,26.4,9.8,-2.2,84,68,57,30.78,30.08,26,7,31,0.00
2012-2-11,21.9,9.3,1.6,10.2,-1.0,-5.6,77,63,46,31.05,30.61,12,2,19,0.00
2012-2-12,31.6,18.0,0.2,20.2,8.7,-4.3,83,67,53,30.63,30.07,13,1,17,0.00
2012-2-13,33.2,30.0,25.8,30.9,27.0,15.9,94,89,57,30.07,29.76,21,1,32,0.01
2012-2-14,43.4,31.1,17.9,37.6,26.8,15.5,93,84,67,29.90,29.81,10,1,14,0.02
2012-2-15,48.2,35.8,26.6,37.4,31.4,24.7,94,84,64,30.16,29.88,11,1,14,0.01
2012-2-16,50.9,35.6,24.5,31.3,26.3,20.9,88,70,39,30.30,30.12,12,2,14,0.00
2012-2-17,50.4,38.6,28.9,31.0,27.5,21.7,77,66,41,30.26,30.05,17,2,19,0.00
2012-2-18,51.2,32.4,18.6,27.9,21.4,15.4,89,67,35,30.31,30.16,9,0,9,0.00
2012-2-19,49.3,34.6,20.1,31.7,25.3,17.3,90,70,48,30.17,30.00,19,3,19,0.00
2012-2-20,42.7,39.0,34.6,40.8,33.9,25.6,93,82,67,30.01,29.64,25,5,29,0.07
2012-2-21,48.5,39.1,34.5,35.3,31.0,28.3,92,74,49,29.89,29.67,20,3,23,0.01
2012-2-22,55.7,44.0,32.8,39.2,33.9,28.1,84,69,48,29.67,29.43,16,1,20,0.00
2012-2-23,46.2,42.2,34.8,43.2,37.9,30.8,91,84,78,29.65,29.32,37,4,37,0.04
2012-2-24,43.2,33.3,24.9,33.0,26.7,17.4,92,77,48,30.28,29.84,24,4,30,0.03
2012-2-25,41.2,30.3,17.6,26.3,20.0,11.6,80,66,49,30.33,29.76,28,4,31,0.01
2012-2-26,54.4,43.8,29.0,32.3,27.5,19.4,67,54,37,30.31,29.72,31,4,32,0.00
2012-2-27,49.2,32.4,20.2,24.6,18.9,12.7,75,58,34,30.55,30.29,22,2,24,0.00
2012-2-28,54.3,43.5,35.7,52.0,37.5,23.6,94,80,59,30.30,29.33,33,6,43,0.75
2012-2-29,46.8,35.3,28.5,39.2,26.7,23.3,86,71,58,29.90,29.42,40,14,48,0.00
2012-3-1,58.8,38.4,23.6,39.3,30.6,20.8,92,76,44,29.91,29.66,16,3,19,0.00
2012-3-2,50.5,38.8,32.5,32.0,26.9,20.3,88,65,34,29.95,29.70,33,6,36,0.00
2012-3-3,44.2,33.6,26.0,23.7,21.0,18.7,76,61,39,30.02,29.93,25,5,29,0.00
2012-3-4,53.4,36.6,24.7,37.1,26.1,20.4,87,67,39,30.23,29.87,35,4,43,0.00
2012-3-5,61.1,41.7,22.4,31.8,26.4,19.1,89,59,31,30.28,29.82,27,2,30,0.00
2012-3-6,73.7,61.1,48.3,50.2,40.8,31.0,69,48,33,29.82,29.66,31,5,37,0.00
2012-3-7,61.2,47.5,34.1,52.0,38.8,25.0,84,72,63,30.15,29.60,29,6,36,0.00
2012-3-8,56.9,40.7,26.4,26.5,19.9,11.8,80,48,19,30.43,30.14,23,2,29,0.00
2012-3-9,66.1,47.1,30.3,30.5,23.3,16.8,73,42,19,30.58,30.30,20,3,22,0.00
2012-3-10,70.6,54.4,37.6,29.5,27.0,20.3,64,37,15,30.30,30.06,31,7,37,0.00
2012-3-11,50.4,47.9,45.8,46.5,40.0,28.8,94,76,47,30.11,29.76,21,2,23,0.12
2012-3-12,71.0,53.4,44.1,52.1,46.4,41.8,94,79,47,29.97,29.71,18,2,20,0.05
2012-3-13,85.3,63.9,46.7,53.1,47.6,42.4,89,61,26,30.03,29.83,27,3,28,0.00
2012-3-14,82.5,67.2,55.8,60.0,51.8,42.1,92,62,28,29.97,29.80,16,1,17,0.00
2012-3-15,82.7,60.9,43.0,63.8,52.0,38.1,88,73,51,30.05,29.93,14,0,16,0.00
2012-3-16,84.9,66.5,52.7,63.1,57.7,50.3,95,76,41,29.98,29.82,19,2,22,0.00
2012-3-17,85.0,67.1,61.6,63.7,60.5,58.6,92,81,47,29.87,29.73,28,4,36,0.00
2012-3-18,85.0,71.5,63.7,62.3,60.6,59.0,85,70,45,29.81,29.72,32,6,33,0.00
2012-3-19,73.3,63.9,57.1,61.8,57.0,50.9,90,79,47,29.75,29.60,27,4,29,0.08
2012-3-20,59.4,56.9,55.4,56.4,54.3,53.0,94,91,85,29.92,29.75,12,1,13,0.29
2012-3-21,66.4,59.2,54.9,62.6,56.9,53.2,96,92,76,29.99,29.89,21,3,26,0.13
2012-3-22,73.2,59.9,51.7,58.3,50.6,45.3,93,74,41,30.01,29.90,13,1,24,0.04
2012-3-23,81.8,61.0,46.4,54.7,48.1,43.9,93,66,32,30.00,29.93,13,0,14,0.00
2012-3-24,87.5,64.6,46.2,50.7,46.1,42.7,89,56,24,30.06,29.96,11,0,11,0.00
2012-3-25,91.1,66.7,48.3,57.2,48.7,43.3,85,56,30,30.12,30.00,14,1,16,0.00
2012-3-26,85.1,71.2,59.8,58.0,53.8,48.2,72,55,37,30.06,29.79,28,5,34,0.00
2012-3-27,79.8,69.8,59.9,56.4,45.1,30.9,76,45,18,29.99,29.76,31,3,31,0.00
2012-3-28,84.4,63.8,44.7,47.8,42.3,38.6,83,50,23,30.09,29.93,16,3,21,0.00
2012-3-29,71.9,61.9,56.8,62.0,54.7,42.2,88,78,42,29.96,29.70,27,6,30,0.19
2012-3-30,83.9,64.6,51.4,59.0,53.7,48.7,92,71,31,29.87,29.75,19,2,21,0.04
2012-3-31,91.7,72.1,56.2,63.6,52.3,40.2,85,56,17,29.81,29.64,30,3,33,0.01
2012-4-1,92.8,74.7,58.9,65.4,60.0,52.8,91,64,29,29.68,29.47,20,2,26,0.00
2012-4-2,92.6,75.0,59.3,64.9,59.0,52.8,85,61,31,29.85,29.49,24,4,24,0.00
2012-4-3,76.0,61.0,51.4,53.4,48.4,44.2,82,65,44,30.01,29.84,21,4,26,0.00
2012-4-4,64.9,59.1,55.7,49.3,45.3,41.2,68,60,54,29.98,29.84,17,3,21,0.00
2012-4-5,76.0,59.3,50.3,49.5,39.9,33.2,82,52,26,30.12,29.89,21,3,22,0.01
2012-4-6,70.2,55.3,42.7,40.3,35.8,32.6,69,50,29,30.22,29.99,24,4,28,0.00
2012-4-7,67.8,55.6,44.7,50.5,37.0,25.7,96,55,23,30.37,30.02,25,3,30,0.40
2012-4-8,73.4,54.9,33.8,38.6,31.7,24.9,84,46,22,30.41,30.14,24,2,29,0.00
2012-4-9,72.6,55.7,38.7,32.4,27.7,20.0,70,37,18,30.28,30.17,21,1,24,0.00
2012-4-10,67.8,51.3,34.3,27.1,22.2,16.9,65,34,19,30.33,30.22,14,1,18,0.00
2012-4-11,65.8,48.7,34.8,28.9,22.6,18.2,54,37,21,30.41,30.20,13,2,18,0.00
2012-4-12,51.7,48.2,41.4,47.5,37.2,25.2,88,67,45,30.20,29.91,21,4,28,0.16
2012-4-13,77.3,61.3,49.0,58.3,48.7,42.5,90,67,32,29.91,29.72,28,6,33,0.08
2012-4-14,64.1,57.2,47.2,61.4,54.2,43.8,95,90,75,29.87,29.46,23,4,29,1.04
2012-4-15,72.5,61.7,46.4,60.8,52.3,38.3,95,74,31,29.54,29.33,47,8,53,0.62
2012-4-16,61.9,51.4,42.6,43.5,39.1,35.3,87,64,42,30.27,29.54,33,5,42,0.00
2012-4-17,74.8,57.0,39.7,52.5,44.8,35.4,89,67,40,30.32,30.06,25,3,32,0.04
2012-4-18,83.7,65.8,53.7,58.5,52.2,46.3,87,63,40,30.08,29.90,17,1,24,0.03
2012-4-19,65.7,55.6,44.8,57.2,49.9,40.3,91,82,71,29.98,29.72,18,3,24,0.13
2012-4-20,65.5,51.5,39.9,39.9,36.4,32.5,87,60,33,30.14,29.98,19,2,25,0.00
2012-4-21,76.2,57.2,42.5,47.5,37.1,30.2,74,51,23,30.10,29.92,28,2,29,0.00
2012-4-22,67.4,53.6,44.0,43.0,39.1,36.5,77,59,39,30.29,30.06,23,4,31,0.00
2012-4-23,75.8,55.2,36.0,42.7,36.9,31.5,93,57,25,30.29,29.91,11,1,14,0.00
2012-4-24,98.4,68.2,49.2,57.2,49.1,39.3,78,54,24,29.92,29.61,12,0,13,0.00
2012-4-25,96.3,75.4,58.5,58.5,50.9,40.8,81,48,18,29.84,29.54,21,2,30,0.00
2012-4-26,82.7,67.9,59.4,50.6,45.7,41.0,63,46,30,30.08,29.84,19,3,21,0.00
2012-4-27,64.3,55.1,48.3,44.4,41.4,38.0,84,61,42,30.05,29.66,41,11,46,0.37
2012-4-28,72.8,55.2,46.6,53.0,46.7,42.9,90,75,47,30.13,29.74,17,3,20,0.00
2012-4-29,52.2,50.0,47.7,49.9,47.3,44.5,93,91,83,30.13,30.01,13,2,15,0.26
2012-4-30,74.6,59.1,49.1,58.2,51.7,46.8,93,78,51,30.06,29.86,13,2,17,0.00
2012-5-1,86.3,70.9,56.7,67.5,61.5,54.2,93,74,48,29.87,29.62,27,4,27,0.00
2012-5-2,83.8,73.1,62.7,71.4,66.2,60.1,94,80,63,29.78,29.63,17,2,22,0.24
2012-5-3,94.8,74.6,61.4,71.7,65.7,59.0,94,75,46,29.89,29.74,27,2,41,0.34
2012-5-4,95.3,77.8,67.8,73.0,69.1,64.6,93,76,46,29.88,29.77,24,2,26,0.00
2012-5-5,93.2,81.7,71.9,75.4,70.9,66.4,92,72,43,29.88,29.75,22,4,24,0.00
2012-5-6,81.2,69.6,60.8,68.6,61.2,54.3,93,76,55,30.08,29.75,41,5,47,1.05
2012-5-7,74.8,62.9,53.7,54.5,44.6,38.0,79,53,35,30.16,30.05,21,2,27,0.00
2012-5-8,69.8,58.6,47.7,45.2,41.5,38.5,80,55,35,30.12,30.03,25,2,31,0.00
2012-5-9,77.8,59.3,45.6,48.9,43.5,40.1,84,58,33,30.16,29.98,14,1,16,0.00
2012-5-10,85.6,69.7,52.5,56.8,50.4,43.0,76,53,34,29.98,29.79,19,3,26,0.00
2012-5-11,80.9,67.4,54.2,57.0,49.0,37.6,69,53,35,30.29,29.86,20,3,29,0.00
2012-5-12,78.5,63.3,51.2,45.0,41.8,38.2,68,48,29,30.38,30.27,15,1,16,0.00
2012-5-13,86.5,67.3,51.4,48.0,42.9,37.7,75,44,20,30.33,30.18,7,0,10,0.00
2012-5-14,86.3,67.4,48.3,52.3,45.0,38.7,84,49,21,30.19,30.01,15,1,18,0.00
2012-5-15,93.1,73.9,60.0,53.4,46.1,32.9,71,42,16,30.11,30.00,18,2,21,0.00
2012-5-16,88.0,69.1,48.9,47.2,40.5,35.6,69,37,20,30.20,30.02,12,1,15,0.00
2012-5-17,90.8,75.3,60.2,58.0,50.7,44.0,59,44,25,30.03,29.81,26,4,31,0.00
2012-5-18,90.1,78.5,66.3,61.5,56.9,53.7,65,49,33,29.87,29.73,24,4,31,0.00
2012-5-19,86.1,75.1,61.0,65.9,60.9,56.8,92,63,47,29.95,29.73,37,3,44,0.00
2012-5-20,78.3,64.8,54.3,60.7,51.8,43.4,93,66,33,30.31,29.90,23,3,23,0.09
2012-5-21,85.5,64.8,45.9,49.2,44.9,41.7,92,53,27,30.33,30.12,9,0,12,0.00
2012-5-22,86.5,72.5,59.5,53.7,47.9,44.2,61,43,29,30.12,29.74,28,4,34,0.00
2012-5-23,92.8,78.6,65.8,67.9,57.5,48.4,89,50,35,29.74,29.42,28,6,39,0.09
2012-5-24,79.2,67.5,58.0,65.7,58.5,52.3,90,74,52,29.83,29.46,19,2,25,0.06
2012-5-25,81.3,66.1,55.6,62.5,56.9,51.3,92,74,48,30.03,29.83,21,4,24,0.00
2012-5-26,97.0,80.0,65.0,74.8,67.5,55.6,82,67,46,29.97,29.77,24,6,29,0.00
2012-5-27,93.4,82.7,74.1,70.2,65.9,60.9,77,59,42,29.84,29.64,26,6,33,0.00
2012-5-28,83.4,71.6,62.4,66.2,57.5,47.3,96,66,31,29.91,29.73,26,2,34,0.42
2012-5-29,82.9,67.9,55.9,52.9,46.8,43.1,85,49,29,30.09,29.89,18,1,22,0.00
2012-5-30,75.6,62.2,52.9,57.7,49.0,42.8,91,64,38,30.10,29.88,16,2,16,0.16
2012-5-31,63.2,55.3,46.8,53.2,48.4,42.7,90,78,58,30.10,29.95,20,3,24,0.05
2012-6-1,67.5,56.3,43.8,56.2,47.1,41.3,92,73,47,30.09,29.91,14,1,19,0.02
2012-6-2,88.2,68.7,49.7,58.1,49.8,41.8,89,57,23,29.93,29.85,18,1,24,0.00
2012-6-3,89.2,75.8,60.4,67.5,57.9,47.3,67,54,42,29.89,29.78,20,2,22,0.00
2012-6-4,98.0,81.9,68.0,63.1,60.6,57.0,80,52,28,29.98,29.84,15,2,21,0.00
2012-6-5,94.5,76.7,62.4,64.9,60.1,56.0,88,59,33,30.02,29.91,11,0,12,0.00
2012-6-6,89.7,76.9,62.7,62.9,58.1,54.1,77,54,37,30.08,29.94,16,2,17,0.00
2012-6-7,88.6,76.3,65.0,63.5,57.9,55.3,73,54,38,30.15,30.04,15,1,18,0.00
2012-6-8,90.0,77.6,64.5,62.6,56.3,52.3,67,50,31,30.09,29.87,16,2,20,0.00
2012-6-9,92.8,80.1,65.9,63.1,58.0,53.0,65,48,33,29.90,29.67,26,4,33,0.00
2012-6-10,91.1,79.0,65.9,71.5,66.0,62.4,93,66,51,29.84,29.68,24,3,28,0.46
2012-6-11,86.6,72.0,60.4,64.1,55.0,47.6,95,60,29,30.13,29.82,19,2,22,0.10
2012-6-12,89.4,70.3,56.9,54.3,48.5,42.7,64,47,27,30.27,30.12,13,1,15,0.00
2012-6-13,85.9,73.8,63.9,60.2,55.0,49.6,64,53,39,30.16,29.87,18,4,26,0.00
2012-6-14,92.5,76.9,64.1,72.0,65.8,59.1,93,70,49,29.98,29.76,36,4,49,0.99
2012-6-15,79.3,69.3,64.3,67.4,64.4,61.2,94,85,65,30.01,29.89,16,2,19,0.69
2012-6-16,89.5,72.2,60.6,70.3,63.9,58.3,95,77,48,30.07,29.96,13,1,14,0.32
2012-6-17,91.4,77.1,61.8,75.3,67.3,59.1,95,73,52,30.04,29.61,22,2,27,0.00
2012-6-18,95.5,85.1,76.9,75.4,70.8,66.8,74,63,49,29.69,29.57,25,4,29,0.00
2012-6-19,91.8,83.4,75.9,73.5,69.9,67.3,76,64,51,29.80,29.68,30,5,33,0.00
2012-6-20,81.8,74.9,61.9,72.6,67.3,59.5,92,78,66,30.05,29.76,21,4,28,0.50
2012-6-21,88.7,72.9,59.0,60.7,57.7,54.9,94,64,33,30.17,30.05,14,1,18,0.00
2012-6-22,88.4,73.8,58.4,62.8,59.1,55.3,92,63,37,30.14,29.95,13,2,21,0.00
2012-6-23,88.3,74.0,62.8,71.8,64.5,57.1,89,73,56,30.07,29.85,33,6,38,0.25
2012-6-24,101.8,84.6,73.3,77.9,72.5,68.0,85,69,44,29.98,29.86,24,3,24,0.00
2012-6-25,91.2,80.4,74.0,74.5,70.7,64.0,85,73,56,30.04,29.96,21,6,25,0.00
2012-6-26,89.8,78.0,66.8,72.5,63.9,54.2,74,62,52,29.99,29.75,18,4,23,0.00
2012-6-27,102.8,88.8,75.6,79.5,73.5,69.6,82,62,42,29.82,29.72,19,1,22,0.00
2012-6-28,104.9,88.9,77.4,83.3,77.9,70.8,88,71,49,29.96,29.82,11,1,14,0.00
2012-6-29,96.4,84.7,77.6,78.1,72.6,65.5,89,69,40,29.98,29.81,14,2,23,0.01
2012-6-30,103.7,80.2,71.7,77.3,69.5,65.8,85,71,42,29.90,29.82,12,1,15,0.00
2012-7-1,95.8,84.6,74.6,76.8,70.8,64.1,81,64,47,29.98,29.88,14,1,18,0.00
2012-7-2,96.0,85.5,73.7,74.0,70.3,66.4,79,62,43,29.98,29.88,15,1,23,0.00
2012-7-3,99.0,86.6,75.9,77.2,71.4,67.4,75,62,43,29.92,29.82,16,2,20,0.00
2012-7-4,99.5,88.5,77.9,74.7,69.8,63.8,66,55,42,29.89,29.83,21,1,24,0.00
2012-7-5,102.5,89.2,78.6,74.1,70.1,65.6,67,54,36,29.98,29.88,16,1,17,0.00
2012-7-6,103.0,88.4,77.2,73.9,69.4,66.3,71,55,33,30.01,29.95,11,1,17,0.00
2012-7-7,99.1,84.7,75.1,77.1,71.9,66.2,84,66,49,30.12,29.99,14,1,20,0.00
2012-7-8,88.7,79.9,72.1,70.2,65.2,59.9,74,61,49,30.17,30.08,16,4,24,0.00
2012-7-9,100.8,83.9,70.7,67.6,63.7,59.6,73,53,32,30.18,30.09,12,2,16,0.00
2012-7-10,95.4,81.0,67.2,66.0,59.3,56.1,75,50,30,30.20,30.11,16,2,19,0.00
2012-7-11,98.0,80.9,66.3,67.4,62.9,59.0,82,57,34,30.17,30.04,12,1,13,0.00
2012-7-12,98.6,83.0,68.5,70.5,66.0,62.9,83,59,35,30.07,29.98,9,0,12,0.00
2012-7-13,102.0,84.6,73.8,72.0,68.6,66.9,83,61,37,30.05,29.98,10,0,12,0.00
2012-7-14,104.6,84.8,70.2,72.3,67.7,62.2,85,60,31,30.08,29.98,20,1,24,0.00
2012-7-15,101.2,86.2,72.2,74.8,69.1,64.6,83,59,35,30.07,29.96,16,1,20,0.00
2012-7-16,97.3,83.9,71.6,70.9,66.0,61.4,73,56,40,30.00,29.86,14,2,20,0.00
2012-7-28,89.6,78.6,68.1,66.3,62.7,60.0,77,60,43,30.17,29.98,16,4,28,0.00
2012-7-29,108.6,86.5,71.7,71.2,65.4,60.7,73,52,25,30.01,29.92,9,1,15,0.04
2012-7-30,107.4,86.7,75.3,72.4,68.1,56.8,86,59,21,30.02,29.93,13,1,13,0.00
2012-7-31,110.8,87.1,69.7,73.2,68.9,64.8,88,59,27,30.04,29.95,11,1,12,0.00
2012-8-1,103.5,87.3,73.6,71.7,67.0,62.1,73,53,28,30.00,29.84,12,2,19,0.00
2012-8-2,104.6,87.0,72.6,70.6,67.7,65.0,84,56,32,29.92,29.83,19,1,29,0.00
2012-8-3,102.1,87.2,74.7,73.1,69.1,65.8,78,57,36,29.93,29.78,15,1,18,0.00
2012-8-4,86.8,77.5,66.9,71.2,61.7,52.7,78,60,37,30.10,29.81,24,3,37,0.00
2012-8-5,96.2,76.7,61.5,59.4,56.5,53.0,82,53,27,30.29,30.10,13,1,15,0.00
2012-8-6,98.8,80.4,63.1,63.5,58.4,53.9,80,50,26,30.20,29.99,15,1,20,0.00
2012-8-7,105.3,85.0,69.8,68.8,61.8,56.9,73,49,26,30.02,29.92,26,1,26,0.01
2012-8-8,102.6,79.5,67.2,70.5,65.8,61.2,89,66,35,30.02,29.87,28,1,28,0.33
2012-8-9,91.8,77.4,65.9,66.1,62.3,54.5,89,63,36,30.10,30.00,17,2,21,0.11
2012-8-10,90.9,73.5,59.5,59.2,55.7,52.9,84,56,32,30.18,30.08,12,1,16,0.00
2012-8-11,87.7,70.9,58.0,61.9,57.3,53.8,90,65,38,30.14,29.98,14,1,15,0.00
2012-8-12,85.3,72.9,65.9,64.9,60.8,58.7,81,67,48,30.01,29.89,20,3,25,0.00
2012-8-13,91.8,72.3,61.7,62.1,58.4,54.7,90,66,30,30.16,30.00,14,2,19,0.00
2012-8-14,87.0,72.2,57.0,62.9,58.8,53.7,91,65,40,30.08,29.90,14,1,20,0.00
2012-8-15,93.7,77.1,60.4,70.1,63.1,56.9,89,65,41,29.94,29.75,22,1,27,0.02
2012-8-16,81.4,71.0,62.3,70.1,53.7,45.7,78,57,33,30.15,29.85,20,2,25,0.00
2012-8-17,90.0,69.3,51.1,52.2,47.4,41.4,87,51,22,30.19,30.05,11,0,13,0.00
2012-8-18,76.5,60.4,52.1,58.4,51.5,46.5,88,73,46,30.13,30.00,17,2,22,0.04
2012-8-19,89.6,68.7,51.2,55.7,52.3,48.8,93,61,29,30.15,30.02,11,0,11,0.00
2012-8-20,95.7,73.1,54.2,57.0,52.8,49.5,92,55,24,30.08,29.94,13,1,18,0.00
2012-8-21,100.5,78.2,60.2,59.2,55.6,52.7,78,49,24,30.08,29.98,14,2,19,0.00
2012-8-22,93.0,78.2,61.0,64.5,56.7,52.6,78,50,30,30.04,29.93,23,2,30,0.00
2012-8-23,91.3,80.3,69.0,65.1,59.5,51.7,59,50,40,30.00,29.88,24,2,29,0.00
2012-8-24,79.7,73.0,68.1,67.8,65.8,62.1,92,79,56,29.98,29.91,16,2,22,0.21
2012-8-25,73.0,69.9,67.8,69.8,66.6,63.0,93,89,83,29.97,29.89,16,2,21,0.09
2012-8-26,94.8,76.9,66.9,71.1,67.8,65.1,95,77,44,30.11,29.94,10,0,11,0.01
2012-8-27,96.0,78.9,63.8,72.3,66.1,61.6,95,68,37,30.21,30.10,12,0,14,0.00
2012-8-28,96.8,80.6,67.2,64.6,61.0,56.4,85,56,28,30.17,29.97,17,1,23,0.00
2012-8-29,98.0,81.9,67.4,63.5,59.1,53.0,74,50,24,30.02,29.89,25,3,31,0.00
2012-8-30,100.9,83.8,68.5,63.7,61.0,57.5,74,49,25,29.99,29.90,22,2,26,0.00
2012-8-31,102.8,80.6,65.2,70.3,64.5,59.5,85,61,27,30.04,29.97,15,1,19,0.00
2012-9-1,102.5,83.7,70.2,71.3,67.7,64.8,89,62,33,30.07,29.97,14,1,18,0.00
2012-9-2,97.5,79.9,62.6,68.2,64.3,58.7,89,62,37,30.02,29.90,11,1,13,0.00
2012-9-3,87.4,78.7,71.2,74.1,70.1,67.1,89,76,59,30.01,29.88,18,1,20,0.00
2012-9-4,102.3,83.8,69.6,74.2,69.3,62.1,93,66,35,29.93,29.76,14,1,16,0.01
2012-9-5,94.1,78.8,67.3,63.9,55.9,46.2,73,48,23,29.99,29.77,17,2,21,0.00
2012-9-6,92.1,74.5,53.7,68.8,54.2,46.1,84,52,27,30.05,29.81,19,1,21,0.02
2012-9-7,77.9,68.4,60.7,68.5,55.7,46.0,83,65,39,30.15,29.79,18,2,27,0.03
2012-9-8,87.5,67.9,48.1,48.4,45.2,39.8,87,50,21,30.21,29.98,25,2,25,0.00
2012-9-9,87.8,68.1,51.7,51.0,47.3,43.1,75,50,26,30.28,30.11,13,1,18,0.00
2012-9-10,88.2,70.3,54.1,54.0,50.8,47.3,79,54,29,30.16,29.93,21,3,27,0.00
2012-9-11,96.4,78.3,60.9,55.0,52.8,50.6,72,45,23,29.98,29.86,28,4,35,0.00
2012-9-12,81.4,68.5,55.2,60.2,54.4,46.1,93,63,41,30.32,29.94,25,3,32,0.05
2012-9-13,75.3,59.3,50.6,53.6,50.0,47.6,93,74,41,30.45,30.30,18,1,23,0.14
2012-9-14,81.9,63.4,47.7,52.3,46.6,40.2,92,61,27,30.40,30.28,16,1,19,0.05
2012-9-15,80.7,64.5,46.9,59.0,51.8,43.2,90,66,40,30.31,30.11,13,1,19,0.02
2012-9-16,78.5,65.8,56.9,63.2,59.2,54.6,96,80,55,30.12,29.94,13,1,17,0.01
2012-9-17,70.0,60.4,52.0,61.2,52.1,40.0,95,76,37,30.10,29.94,15,1,21,0.00
2012-9-18,77.6,58.6,40.9,44.5,40.8,35.3,90,56,26,30.17,29.97,9,0,9,0.00
2012-9-19,96.6,68.5,50.8,56.8,45.3,35.5,84,48,20,30.04,29.80,23,2,35,0.00
2012-9-20,77.4,63.3,51.1,49.5,41.2,34.3,66,46,27,30.11,29.98,14,1,16,0.00
2012-9-21,79.1,65.2,52.9,47.6,41.8,35.2,68,46,22,29.99,29.86,27,2,31,0.00
2012-9-22,72.5,56.2,43.8,42.8,33.8,27.8,72,45,22,30.32,29.97,18,2,20,0.00
2012-9-23,79.9,49.9,38.3,40.2,35.1,32.7,86,62,21,30.39,30.23,8,0,11,0.00
2012-9-24,75.6,61.0,47.2,54.3,44.7,37.8,74,57,34,30.23,29.86,11,0,17,0.00
2012-9-25,93.7,70.9,51.7,55.9,51.4,46.0,91,56,24,29.94,29.84,8,0,9,0.00
2012-9-26,87.7,67.3,55.0,47.4,40.7,32.9,59,40,17,30.18,29.92,9,1,11,0.00
2012-9-27,86.7,62.9,43.8,42.4,36.8,28.4,78,43,14,30.26,30.14,7,0,9,0.00
2012-9-28,85.5,59.7,42.1,52.4,44.1,38.6,90,61,25,30.24,30.13,7,0,11,0.00
2012-9-29,87.6,63.4,45.1,53.1,46.6,42.1,92,60,25,30.22,30.07,5,0,7,0.00
2012-9-30,87.0,65.5,49.2,52.6,48.5,45.4,92,60,26,30.08,29.94,3,0,4,0.00
2012-10-1,79.2,63.2,49.3,54.2,46.8,39.5,85,58,32,30.03,29.93,21,2,28,0.00
2012-10-2,80.0,60.2,43.0,44.3,38.0,31.9,76,47,20,30.03,29.89,7,0,11,0.00
2012-10-3,83.0,63.0,42.7,44.1,39.1,35.1,78,46,20,29.97,29.81,21,2,27,0.00
2012-10-4,64.4,53.0,45.4,45.5,37.5,31.8,84,57,37,30.34,29.95,25,3,28,0.04
2012-10-5,57.0,44.2,35.7,32.4,29.6,23.9,81,59,31,30.38,30.27,17,1,17,0.00
2012-10-6,50.5,41.6,31.3,28.7,25.4,21.5,70,53,41,30.40,30.31,17,1,20,0.00
2012-10-7,59.0,42.5,25.8,32.6,27.3,21.6,86,58,31,30.33,30.06,21,1,26,0.00
2012-10-8,72.8,55.0,39.5,38.3,35.1,31.3,79,51,27,30.06,29.82,22,2,26,0.00
2012-10-9,57.8,50.6,39.2,44.5,33.6,24.7,73,53,33,30.17,29.83,23,2,30,0.00
2012-10-10,66.4,47.8,30.7,34.3,29.9,25.5,84,54,29,30.26,30.07,14,1,20,0.00
2012-10-11,71.5,53.3,42.8,41.5,34.2,27.0,69,49,32,30.38,30.03,22,2,24,0.00
2012-10-12,56.6,49.0,38.4,45.5,29.8,20.5,75,48,32,30.39,30.03,20,3,21,0.00
2012-10-13,73.9,63.6,52.8,65.3,59.0,45.4,95,85,70,30.04,29.60,21,2,24,0.02
2012-10-14,69.5,59.5,47.3,62.8,46.8,39.4,94,66,35,30.02,29.64,23,3,29,0.01
2012-10-15,78.9,59.2,41.5,49.1,44.4,38.7,92,62,33,30.02,29.80,10,0,14,0.00
2012-10-16,84.2,65.3,52.3,50.4,48.7,45.7,87,59,28,29.80,29.46,16,1,20,0.00
2012-10-17,66.8,59.9,53.9,51.7,39.8,23.2,87,50,26,29.64,29.38,35,5,36,0.05
2012-10-18,53.9,48.9,45.0,42.0,33.7,24.2,87,59,33,29.67,29.55,42,11,46,0.00
2012-10-19,48.6,45.9,42.4,41.8,40.6,37.5,87,82,76,29.87,29.65,30,6,37,0.00
2012-10-20,71.2,52.0,35.4,47.1,40.9,33.3,94,69,38,29.87,29.72,15,2,19,0.00
2012-10-21,85.7,65.1,48.9,64.6,54.5,43.0,84,70,47,29.83,29.74,13,1,24,0.01
2012-10-22,69.0,62.8,55.6,64.7,58.6,53.0,92,86,77,29.84,29.78,11,2,13,0.07
2012-10-23,82.3,62.4,54.1,66.0,57.7,52.4,95,86,55,29.84,29.68,14,1,15,0.03
2012-10-24,59.9,55.4,47.0,58.8,53.4,44.8,96,93,89,29.82,29.75,16,3,20,0.02
2012-10-25,47.0,39.8,35.8,44.9,34.7,27.5,93,82,68,30.37,29.70,32,7,35,0.02
2012-10-26,47.2,38.3,31.5,30.7,27.3,25.8,83,65,50,30.53,30.35,16,0,21,0.04
2012-10-27,53.2,38.5,25.5,33.3,26.8,22.1,90,64,40,30.44,30.27,6,0,8,0.29
2012-10-28,56.6,44.5,35.0,34.9,31.2,28.2,77,60,42,30.35,30.22,14,2,17,0.10
2012-10-29,62.4,49.4,42.9,36.9,32.4,29.3,64,53,38,30.27,30.11,19,4,25,0.02
2012-10-30,62.1,46.1,38.5,34.8,31.5,29.3,73,58,33,30.14,30.06,15,3,18,0.01
2012-10-31,65.5,46.6,31.7,40.5,33.1,27.1,85,62,34,30.11,30.00,8,0,9,0.07
2012-11-1,63.1,49.3,40.4,45.4,39.6,35.5,85,70,50,30.03,29.96,16,1,16,0.00
2012-11-2,57.1,45.2,38.6,37.0,32.5,30.4,84,62,41,30.11,29.96,18,3,22,0.00
2012-11-3,62.9,44.6,31.5,39.7,33.4,27.3,87,67,40,30.24,30.11,9,0,10,0.02
2012-11-4,61.7,49.2,39.4,44.6,39.4,33.7,91,71,47,30.22,30.01,15,2,21,0.09
2012-11-5,46.8,42.6,40.9,44.3,40.2,38.6,93,91,89,30.18,30.05,19,2,23,0.00
2012-11-6,59.9,48.0,40.2,39.7,35.4,31.2,92,64,37,30.11,29.97,28,3,33,0.01
2012-11-7,61.4,45.7,34.8,38.5,33.0,29.8,83,63,38,30.21,30.06,8,0,11,0.00
2012-11-8,70.8,52.4,39.7,44.3,37.7,32.0,77,59,35,30.06,29.88,15,1,24,0.00
2012-11-9,67.8,56.8,43.8,58.0,47.6,39.0,84,72,55,29.90,29.68,17,3,21,0.00
2012-11-10,78.3,66.6,46.0,60.0,56.7,42.7,90,72,53,29.72,29.51,30,6,41,0.26
2012-11-11,45.9,31.2,27.1,42.2,21.9,14.4,90,69,49,30.20,29.71,25,6,29,0.02
2012-11-12,43.2,31.2,22.1,19.9,17.9,15.3,76,59,37,30.40,30.19,25,4,31,0.00
2012-11-13,59.5,40.4,23.5,34.9,26.8,17.8,81,61,30,30.40,30.26,8,0,13,0.00
2012-11-14,61.2,46.3,32.3,33.2,29.7,26.3,81,55,29,30.34,30.21,14,1,22,0.00
2012-11-15,65.5,49.2,40.1,38.0,33.5,31.2,73,56,33,30.45,30.21,12,2,16,0.00
2012-11-16,60.4,43.4,27.9,38.7,31.7,23.3,85,65,41,30.49,30.32,14,1,15,0.00
2012-11-17,64.2,50.5,39.6,39.5,36.0,31.4,83,60,39,30.33,30.17,28,2,28,0.00
2012-11-18,62.4,53.4,42.8,41.3,34.9,29.2,63,50,37,30.19,30.06,18,2,23,0.00
2012-11-19,63.8,52.3,43.5,43.5,39.7,36.9,80,63,46,30.15,30.03,14,1,19,0.00
2012-11-20,69.1,49.4,34.0,42.7,36.2,30.3,88,63,29,30.26,30.14,7,0,8,0.00
2012-11-21,74.3,57.4,41.9,49.8,43.1,35.2,81,61,37,30.15,29.84,31,3,36,0.00
2012-11-22,63.6,52.4,40.7,46.5,40.1,31.3,87,64,46,30.25,29.77,27,3,33,0.00
2012-11-23,42.4,30.6,23.3,31.6,15.1,11.1,67,53,36,30.52,30.24,34,6,42,0.00
2012-11-24,45.9,33.8,20.5,27.2,19.7,11.9,76,57,39,30.41,29.89,14,1,27,0.00
2012-11-25,44.5,38.8,35.0,30.1,28.3,26.8,76,66,55,30.17,29.89,10,1,12,0.00
2012-11-26,37.0,30.6,17.7,29.5,21.7,12.4,92,70,52,30.47,30.17,16,2,18,0.00
2012-11-27,44.5,28.1,14.6,27.4,19.7,10.4,85,72,50,30.46,30.19,24,2,26,0.00
2012-11-28,51.9,36.2,22.0,31.8,26.0,18.9,90,69,40,30.40,30.12,13,1,16,0.00
2012-11-29,60.4,43.1,31.5,41.0,33.9,27.4,87,71,47,30.13,29.95,9,0,13,0.00
2012-11-30,53.8,39.5,31.4,36.8,31.5,25.9,86,74,52,30.12,29.97,12,1,18,0.00
2012-12-1,58.4,47.7,37.6,55.6,44.9,33.2,95,90,82,30.00,29.79,11,0,14,0.00
2012-12-2,64.5,47.1,34.9,49.3,41.8,33.3,95,83,55,30.05,29.81,13,1,16,0.01
2012-12-3,64.8,51.8,42.8,51.1,40.9,26.9,95,70,40,30.12,29.65,25,2,27,0.00
2012-12-4,64.8,44.8,30.0,34.4,27.5,22.7,76,53,27,30.32,30.12,7,0,8,0.00
2012-12-5,59.6,44.5,33.5,34.6,29.0,26.5,81,57,31,30.33,29.94,20,2,23,0.00
2012-12-6,50.2,46.6,42.2,36.2,31.9,29.8,67,57,48,30.03,29.89,18,2,23,0.00
2012-12-7,49.1,39.8,33.1,31.5,28.3,25.8,82,64,43,30.02,29.91,10,1,12,0.00
2012-12-8,39.7,35.7,31.0,32.9,29.7,26.7,92,79,68,30.04,29.89,14,2,17,0.00
2012-12-9,37.9,27.2,16.5,35.2,19.4,6.6,91,72,59,30.15,29.85,31,8,33,0.00
2012-12-10,33.7,18.7,7.7,10.9,5.8,1.4,76,58,34,30.14,29.93,23,2,27,0.00
2012-12-11,45.9,32.3,19.7,24.1,18.7,7.3,76,58,40,30.05,29.94,21,2,27,0.00
2012-12-12,54.7,40.3,29.5,23.1,19.6,17.4,62,45,26,30.04,29.95,30,4,33,0.00
2012-12-13,56.1,40.4,31.1,30.3,22.7,17.3,67,50,33,30.09,30.00,11,1,14,0.00
2012-12-14,56.9,42.0,26.5,41.5,30.8,20.0,81,65,47,30.09,29.61,20,2,21,0.02
2012-12-15,47.2,42.7,35.7,45.1,39.5,31.7,94,89,82,29.76,29.48,21,4,25,0.48
2012-12-16,35.7,31.8,28.1,33.1,28.4,25.3,92,87,82,29.85,29.74,12,0,15,0.00
2012-12-17,31.8,29.0,25.2,29.6,26.6,23.0,93,91,88,29.83,29.63,12,0,14,0.00
2012-12-18,48.2,35.5,29.9,36.7,30.5,27.4,93,83,61,29.89,29.51,28,2,34,0.04
2012-12-19,37.8,32.7,29.8,33.4,30.3,27.1,93,91,83,29.94,29.84,4,0,8,0.01
2012-12-20,30.5,22.1,18.7,29.0,19.9,15.5,94,91,86,30.24,29.78,0,0,0,0.08
2012-12-21,33.9,22.7,11.6,24.1,17.7,8.1,94,81,66,30.35,30.19,0,0,0,0.00
2012-12-22,37.0,26.6,19.0,27.8,21.0,15.5,92,79,65,30.19,29.93,8,1,12,0.00
2012-12-23,26.6,18.6,12.3,18.4,13.7,8.4,92,81,69,30.08,29.99,8,1,10,0.00
2012-12-24,21.3,16.4,11.0,15.1,11.1,6.4,89,79,72,30.27,30.05,20,2,23,0.00
2012-12-25,15.0,10.1,4.2,8.4,4.4,-0.9,89,77,70,30.50,30.27,20,4,23,0.00
2012-12-26,24.1,12.9,4.7,15.1,7.0,0.7,84,77,63,30.37,30.18,10,0,13,0.00
2012-12-27,24.7,20.6,12.7,21.1,16.8,8.6,88,85,81,30.18,29.99,13,3,15,0.00
2012-12-28,25.4,21.8,17.9,20.6,17.9,13.6,92,85,78,30.13,30.00,14,1,19,0.00
2012-12-29,25.6,17.9,9.8,17.4,12.7,5.7,92,80,69,30.25,30.13,13,0,15,0.00
2012-12-30,44.0,28.2,16.0,29.2,21.0,12.5,88,75,54,30.26,29.97,22,2,24,0.00
2012-12-31,25.6,22.1,18.1,19.3,16.8,13.3,86,80,72,30.26,30.11,14,1,19,0.00
2013-1-1,23.6,15.5,7.1,13.2,8.3,1.8,84,73,56,30.34,30.14,5,0,7,0.00